Regional Weather Roundup
Issued by NWS New Orleans/Baton Rouge, LA

Home | Current Version | Previous Version | Text Only | Print | Product List | Glossary On
Versions: 1 2 3 4 5 6 7 8 9 10 11 12 13 14 15 16 17 18 19 20 21 22 23 24 25 26 27 28 29 30 31 32 33 34 35 36 37 38 39 40 41 42 43 44 45 46 47 48 49 50
520
ASUS44 KLIX 220801
RWRLIX
NEW ORLEANS REGIONAL WEATHER ROUNDUP
NATIONAL WEATHER SERVICE NEW ORLEANS LA
200 AM CST SAT NOV 22 2014

NOTE: "FAIR" INDICATES FEW OR NO CLOUDS BELOW 12,000 FEET WITH NO
      SIGNIFICANT WEATHER AND/OR OBSTRUCTIONS TO VISIBILITY.
      SKY/WX - SKY CONDITION AND SIGNIFICANT WEATHER.
      TMP - AIR TEMPERATURE.     DP    - DEWPOINT TEMPERATURE.
      RH  - RELATIVE HUMIDITY.   PRES  - PRESSURE.
      HI  - HEAT INDEX.          WCI   - WIND CHILL INDEX.

*  THESE STATIONS ARE NOT NWS OR FAA STATIONS AND ARE NOT UNDER
   NWS QUALITY CONTROL.

LAZ038-040-048-061>063-065>067-069-220900-
SOUTHEAST LOUISIANA

CITY           SKY/WX    TMP DP  RH WIND       PRES   REMARKS
N.O. AUDUBON   NOT AVBL
N.O. INTL ARPT CLEAR     55  50  83 E5        30.22F
N.O. LAKEFRONT CLEAR     56  52  86 E10       30.23F
N.O. DOWNTOWN*   N/A     59  48  67 N7        30.23S
SLIDELL        CLEAR     51  47  86 NE3       30.24S
BATON ROUGE    CLEAR     51  49  92 NE5       30.23F
BOOTHVILLE     CLEAR     61  57  87 E6        30.22S
BELLE CHASSE   CLEAR     57  49  74 E7        30.22F
BOGALUSA*        N/A     45  41  87 CALM      30.27F
NEW ROADS*     NOT AVBL
GONZALES*      NOT AVBL
HAMMOND*       CLEAR     54  48  82 CALM      30.25F
HOUMA*         CLEAR     51  49  93 CALM      30.20F
PORT FOURCHON* NOT AVBL

$$

MSZ070-080>082-220900-
SOUTHERN MISSISSIPPI

CITY           SKY/WX    TMP DP  RH WIND       PRES   REMARKS
MCCOMB         CLEAR     52  45  77 E5        30.26S
GULFPORT       CLEAR     52  46  80 NE6       30.25F
BILOXI         NOT AVBL
PASCAGOULA     CLEAR     46  43  89 N3        30.27R

$$

COASTAL OBSERVATIONS
LAKE AND NEARSHORE STATIONS

STATION/POSITION TIME  TEMP    WIND        PRES    WAVE
                       AIR SEA DIR/SP/G            HT/PER
                 (UTC) (F)     (DEG/KT/KT) (MB)    (FT/S)
PASCAGOULA       0700   57      70/ 12/ 16 1024.0
WAVELAND YACHT   0700   54      60/  8/  9 1023.5
GRAND ISLE       0700   62 61   80/  7/ 11 1023.3
SOUTHWEST PASS   0700   69 73              1022.6
NEW CANAL        0700   55 54   70/  8/  9 1023.9
SHELL BEACH      0700   57 51   60/  7/  8 1023.3

OFFSHORE STATIONS

STATION/POSITION TIME  TEMP    WIND        PRES    WAVE
                       AIR SEA DIR/SP/G            HT/PER
                 (UTC) (F)     (DEG/KT/KT) (MB)    (FT/S)
64 S DAUPHIN ISL 0658   70 72  110/ 17/ 21 1023.9    6/ 7

$$




USA.gov is the U.S. government's official web portal to all federal, state and local government web resources and services.